Location: Oshawa
(43.9000°N, 78.8670°W)
Time: 21:53:44
(UTC-04:00)

Cosmos 1805 Rocket - Visible Passes

Search period start: 24 April 2015 00:00
Search period end: 04 May 2015 00:00
Orbit: 607 x 631 km, 82.5° (Epoch: 23 April)

Date Brightness Start Highest point End Pass type
(mag) Time Alt. Az. Time Alt. Az. Time Alt. Az.
24 Apr 6.6 04:22:11 10° ESE 04:23:43 12° E 04:25:30 10° ENE visible
25 Apr 6.0 04:37:32 10° SE 04:40:50 21° E 04:44:14 10° NE visible
26 Apr 5.0 04:53:55 10° SSE 04:58:00 38° E 05:02:07 10° NNE visible
27 Apr 3.9 05:10:50 10° S 05:15:14 72° E 05:19:39 10° NNE visible
28 Apr 6.4 03:53:23 10° ESE 03:55:09 12° E 03:57:07 10° ENE visible
28 Apr 3.6 05:28:10 10° SSW 05:32:33 62° W 05:36:56 10° N visible
29 Apr 5.8 04:08:53 10° SE 04:12:15 22° E 04:15:43 10° NE visible
30 Apr 4.8 04:25:19 10° SSE 04:29:25 40° E 04:33:34 10° NNE visible
01 May 3.7 04:42:15 10° S 04:46:39 75° E 04:51:04 10° NNE visible
02 May 6.3 03:24:37 10° ESE 03:26:32 13° E 03:28:40 10° NE visible
02 May 3.7 04:59:44 11° SSW 05:03:59 58° W 05:08:19 10° N visible
03 May 5.6 03:40:12 10° SE 03:43:39 23° E 03:47:10 10° NE visible
03 May 4.4 05:17:25 10° SW 05:21:24 32° WNW 05:25:21 10° N visible
